Location: Unspecified
(41.9031°N, 12.4386°E)
Time: 12:28:24
(UTC+02:00)

ISS - Visible Passes

Search period start: 26 September 2018 00:00
Search period end: 06 October 2018 00:00
Orbit: 403 x 408 km, 51.6° (Epoch: 26 September)

Date Brightness Start Highest point End Pass type
(mag) Time Alt. Az. Time Alt. Az. Time Alt. Az.
26 Sep -2.3 20:10:38 10° W 20:13:40 33° NNW 20:16:23 12° NE visible
26 Sep -0.3 21:48:48 10° NW 21:49:04 11° NW 21:49:04 11° NW visible
27 Sep -1.4 20:56:24 10° NW 20:58:43 17° NNW 20:59:16 17° N visible
28 Sep -1.6 20:03:57 10° WNW 20:06:34 21° NNW 20:09:13 10° NE visible
28 Sep -0.3 21:41:56 10° NW 21:42:03 10° NNW 21:42:03 10° NNW visible
29 Sep -1.3 20:49:43 10° NW 20:51:45 15° N 20:52:07 15° N visible
30 Sep -1.4 19:57:19 10° NW 19:59:32 17° N 20:01:45 10° NNE visible
30 Sep -0.4 21:34:39 10° NNW 21:34:48 11° NNW 21:34:48 11° NNW visible
01 Oct -1.4 20:42:39 10° NW 20:44:45 16° N 20:44:47 16° N visible
02 Oct -1.4 19:50:28 10° NW 19:52:29 15° N 19:54:31 10° NE visible
02 Oct -0.5 21:27:05 10° NW 21:27:26 12° NNW 21:27:26 12° NNW visible
03 Oct -1.7 20:35:13 10° NW 20:37:24 19° N 20:37:24 19° N visible
04 Oct -1.6 19:43:14 10° NNW 19:45:24 16° N 19:47:23 11° NE visible
04 Oct -0.7 21:19:26 10° NW 21:20:03 14° NW 21:20:03 14° NW visible
05 Oct -2.2 20:27:33 10° NW 20:30:03 26° N 20:30:03 26° N visible
